Location: Normandy Village
(37.8755°N, 122.2655°W)
Time: 12:27:39
(UTC+00:00)

PAYLOAD A - Pass Details

Date: 22 September 2019
Orbit: 691 x 833 km, 98.3° (Epoch: 15 October)

Event Time Altitude Azimuth Distance (km) Brightness Sun altitude
Rises 13:07:47 0° 2° (N) 3,097 7.3 -10.5°
Reaches altitude 10° 13:10:13 10° 353° (N) 2,163 6.4 -10.0°
Maximum altitude 13:14:25 33° 290° (WNW) 1,156 4.5 -9.2°
Drops below altitude 10° 13:18:34 10° 227° (SW) 2,139 5.8 -8.3°
Sets 13:20:59 0° 218° (SW) 3,056 6.7 -7.9°
